Time,TemperatureF,DewpointF,PressureIn,WindDirection,WindDirectionDegrees,WindSpeedMPH,WindSpeedGustMPH,Humidity,HourlyPrecipIn,Conditions,Clouds,dailyrainin,SoftwareType,DateUTC
2013-08-01 00:00:00,62.2,62.0,30.00,NE,52,0.0,0.0,99,0.01,,,0.16,weatherlink.com 1.10,2013-08-01 04:00:00,
2013-08-01 00:15:00,62.0,62.0,30.00,NE,52,0.0,0.0,99,0.00,,,0.00,weatherlink.com 1.10,2013-08-01 04:15:00,
2013-08-01 00:30:00,61.6,61.0,30.01,NE,52,0.0,0.0,99,0.00,,,0.00,weatherlink.com 1.10,2013-08-01 04:30:00,
2013-08-01 00:45:00,61.4,61.0,30.01,NE,52,0.0,0.0,99,0.00,,,0.00,weatherlink.com 1.10,2013-08-01 04:45:00,
2013-08-01 01:00:00,60.7,61.0,30.01,NE,52,0.0,0.0,99,0.00,,,0.00,weatherlink.com 1.10,2013-08-01 05:00:00,
2013-08-01 01:15:00,60.2,60.0,30.02,NE,52,0.0,1.0,99,0.00,,,0.00,weatherlink.com 1.10,2013-08-01 05:15:00,
2013-08-01 01:30:00,59.9,60.0,30.01,NE,52,0.0,0.0,99,0.00,,,0.00,weatherlink.com 1.10,2013-08-01 05:30:00,
2013-08-01 01:45:00,59.3,59.0,30.01,NE,52,0.0,0.0,99,0.00,,,0.00,weatherlink.com 1.10,2013-08-01 05:45:00,
2013-08-01 02:00:00,58.9,59.0,30.01,NE,52,0.0,0.0,99,0.00,,,0.00,weatherlink.com 1.10,2013-08-01 06:00:00,
2013-08-01 02:15:00,59.4,59.0,30.01,NE,52,0.0,1.0,99,0.00,,,0.00,weatherlink.com 1.10,2013-08-01 06:15:00,
2013-08-01 02:30:00,60.9,61.0,30.01,ENE,67,0.0,3.0,99,0.00,,,0.00,weatherlink.com 1.10,2013-08-01 06:30:00,
2013-08-01 02:45:00,61.2,61.0,30.01,WNW,291,0.0,2.0,99,0.00,,,0.00,weatherlink.com 1.10,2013-08-01 06:45:00,
2013-08-01 03:00:00,61.5,61.0,30.01,West,266,0.0,2.0,99,0.00,,,0.00,weatherlink.com 1.10,2013-08-01 07:00:00,
2013-08-01 03:15:00,61.8,62.0,30.00,NNW,331,0.0,4.0,99,0.00,,,0.00,weatherlink.com 1.10,2013-08-01 07:15:00,
2013-08-01 03:30:00,62.0,62.0,30.00,NW,317,0.0,1.0,99,0.00,,,0.00,weatherlink.com 1.10,2013-08-01 07:30:00,
2013-08-01 03:45:00,62.2,62.0,30.01,NW,317,0.0,1.0,99,0.00,,,0.00,weatherlink.com 1.10,2013-08-01 07:45:00,
2013-08-01 04:15:00,62.0,62.0,30.00,NW,309,0.0,1.0,99,0.00,,,0.00,weatherlink.com 1.10,2013-08-01 08:15:00,
2013-08-01 04:45:00,60.5,60.0,29.99,NW,309,0.0,0.0,99,0.00,,,0.00,weatherlink.com 1.10,2013-08-01 08:45:00,
2013-08-01 05:00:00,59.9,60.0,29.99,NW,309,0.0,0.0,99,0.00,,,0.00,weatherlink.com 1.10,2013-08-01 09:00:00,
2013-08-01 05:15:00,59.3,59.0,29.99,NW,309,0.0,0.0,99,0.00,,,0.00,weatherlink.com 1.10,2013-08-01 09:15:00,
2013-08-01 06:00:00,58.7,59.0,30.00,NW,309,0.0,0.0,99,0.00,,,0.00,weatherlink.com 1.10,2013-08-01 10:00:00,
2013-08-01 06:15:00,58.6,58.0,30.00,NW,309,0.0,0.0,99,0.00,,,0.00,weatherlink.com 1.10,2013-08-01 10:15:00,
2013-08-01 06:45:00,58.4,58.0,30.00,NW,309,0.0,0.0,99,0.00,,,0.00,weatherlink.com 1.10,2013-08-01 10:45:00,
2013-08-01 07:01:00,58.7,59.0,30.01,NW,309,0.0,0.0,99,0.00,,,0.00,weatherlink.com 1.10,2013-08-01 11:01:00,
2013-08-01 07:46:00,61.4,61.0,30.02,NW,309,0.0,0.0,99,0.00,,,0.00,weatherlink.com 1.10,2013-08-01 11:46:00,
2013-08-01 08:01:00,62.0,62.0,30.01,NW,309,0.0,0.0,99,0.00,,,0.00,weatherlink.com 1.10,2013-08-01 12:01:00,
2013-08-01 09:31:00,64.3,64.0,30.02,West,270,0.0,1.0,99,0.00,,,0.00,weatherlink.com 1.10,2013-08-01 13:31:00,
2013-08-01 09:46:00,65.1,65.0,30.02,West,270,0.0,1.0,98,0.00,,,0.00,weatherlink.com 1.10,2013-08-01 13:46:00,
2013-08-01 10:01:00,66.4,65.0,30.02,NW,321,2.0,4.0,94,0.00,,,0.00,weatherlink.com 1.10,2013-08-01 14:01:00,
2013-08-01 10:16:00,67.6,66.0,30.02,ESE,102,0.0,2.0,93,0.00,,,0.00,weatherlink.com 1.10,2013-08-01 14:16:00,
2013-08-01 11:31:00,73.6,67.0,30.01,West,260,0.0,6.0,81,0.00,,,0.00,weatherlink.com 1.10,2013-08-01 15:31:00,
2013-08-01 11:46:00,74.5,67.0,30.01,WNW,298,3.0,4.0,76,0.00,,,0.00,weatherlink.com 1.10,2013-08-01 15:46:00,
2013-08-01 12:16:00,76.6,65.0,30.01,SW,227,1.0,4.0,68,0.00,,,0.00,weatherlink.com 1.10,2013-08-01 16:16:00,
2013-08-01 12:46:00,75.6,63.0,30.01,West,262,0.0,3.0,66,0.00,,,0.00,weatherlink.com 1.10,2013-08-01 16:46:00,
2013-08-01 13:01:00,76.4,64.0,30.00,SSW,199,2.0,3.0,65,0.00,,,0.00,weatherlink.com 1.10,2013-08-01 17:01:00,
2013-08-01 13:16:00,77.0,64.0,30.00,ESE,120,1.0,3.0,65,0.00,,,0.00,weatherlink.com 1.10,2013-08-01 17:16:00,
2013-08-01 14:01:00,73.5,61.0,30.00,SSE,154,0.0,1.0,66,0.00,,,0.00,weatherlink.com 1.10,2013-08-01 18:01:00,
2013-08-01 14:16:00,70.2,65.0,30.00,North,351,0.0,7.0,83,0.00,,,0.00,weatherlink.com 1.10,2013-08-01 18:16:00,
2013-08-01 15:31:00,77.3,63.0,30.00,WSW,254,2.0,5.0,62,0.01,,,0.01,weatherlink.com 1.10,2013-08-01 19:31:00,
2013-08-01 15:46:00,77.6,63.0,30.00,SSE,159,3.0,3.0,62,0.01,,,0.01,weatherlink.com 1.10,2013-08-01 19:46:00,
2013-08-01 16:01:00,77.4,62.0,30.00,West,260,1.0,6.0,60,0.00,,,0.01,weatherlink.com 1.10,2013-08-01 20:01:00,
2013-08-01 16:17:00,77.4,61.0,30.00,South,174,0.0,5.0,57,0.00,,,0.01,weatherlink.com 1.10,2013-08-01 20:17:00,
2013-08-01 16:32:00,77.2,57.0,30.00,SSE,155,1.0,7.0,50,0.00,,,0.01,weatherlink.com 1.10,2013-08-01 20:32:00,
2013-08-01 16:47:00,76.6,60.0,30.00,WSW,238,1.0,5.0,56,0.00,,,0.01,weatherlink.com 1.10,2013-08-01 20:47:00,
2013-08-01 17:02:00,76.5,57.0,30.00,SSE,163,1.0,5.0,52,0.00,,,0.01,weatherlink.com 1.10,2013-08-01 21:02:00,
2013-08-01 17:47:00,74.6,58.0,30.00,SSW,202,1.0,6.0,57,0.00,,,0.01,weatherlink.com 1.10,2013-08-01 21:47:00,
2013-08-01 18:17:00,73.8,59.0,30.00,SSE,165,1.0,4.0,61,0.00,,,0.01,weatherlink.com 1.10,2013-08-01 22:17:00,
2013-08-01 19:02:00,71.8,59.0,30.00,SSE,149,0.0,4.0,65,0.00,,,0.01,weatherlink.com 1.10,2013-08-01 23:02:00,
2013-08-01 19:32:00,70.3,58.0,30.00,NW,315,1.0,3.0,66,0.00,,,0.01,weatherlink.com 1.10,2013-08-01 23:32:00,
2013-08-01 19:47:00,68.8,61.0,30.00,NW,323,0.0,2.0,75,0.00,,,0.01,weatherlink.com 1.10,2013-08-01 23:47:00,
2013-08-01 20:02:00,67.7,60.0,30.00,NW,314,0.0,3.0,76,0.00,,,0.01,weatherlink.com 1.10,2013-08-02 00:02:00,
2013-08-01 20:17:00,66.2,60.0,30.00,NW,314,0.0,1.0,80,0.00,,,0.01,weatherlink.com 1.10,2013-08-02 00:17:00,
2013-08-01 20:32:00,64.5,59.0,30.00,NW,314,0.0,0.0,82,0.00,,,0.01,weatherlink.com 1.10,2013-08-02 00:32:00,
2013-08-01 20:47:00,63.2,58.0,30.00,NW,314,0.0,0.0,84,0.00,,,0.01,weatherlink.com 1.10,2013-08-02 00:47:00,
2013-08-01 21:02:00,62.0,58.0,30.00,NW,314,0.0,0.0,86,0.00,,,0.01,weatherlink.com 1.10,2013-08-02 01:02:00,
2013-08-01 21:17:00,60.9,57.0,30.01,NW,314,0.0,0.0,87,0.00,,,0.01,weatherlink.com 1.10,2013-08-02 01:17:00,
2013-08-01 22:02:00,57.9,56.0,30.02,NW,314,0.0,0.0,93,0.00,,,0.01,weatherlink.com 1.10,2013-08-02 02:02:00,
2013-08-01 22:17:00,57.1,55.0,30.02,NW,314,0.0,0.0,94,0.00,,,0.01,weatherlink.com 1.10,2013-08-02 02:17:00,
2013-08-01 22:32:00,56.6,55.0,30.02,NW,314,0.0,0.0,95,0.00,,,0.01,weatherlink.com 1.10,2013-08-02 02:32:00,
2013-08-01 22:47:00,56.1,55.0,30.02,NW,314,0.0,0.0,95,0.00,,,0.01,weatherlink.com 1.10,2013-08-02 02:47:00,
2013-08-01 23:02:00,55.7,55.0,30.02,NW,314,0.0,0.0,96,0.00,,,0.01,weatherlink.com 1.10,2013-08-02 03:02:00,
2013-08-01 23:32:00,55.1,54.0,30.03,NW,314,0.0,0.0,97,0.00,,,0.01,weatherlink.com 1.10,2013-08-02 03:32:00,
2013-08-01 23:47:00,54.8,54.0,30.03,NW,314,0.0,0.0,97,0.00,,,0.01,weatherlink.com 1.10,2013-08-02 03:47:00,